Location: El Abasto
(10.3790°N, 67.5897°W)
Time: 19:37:15
(UTC+00:00)

Cosmos 1844 - Pass Details

Date: 19 May 2024
Orbit: 821 x 868 km, 70.9° (Epoch: 12 June)

Event Time Altitude Azimuth Distance (km) Brightness Sun altitude
Rises 22:55:52 0° 349° (NNW) 3,436 7.4 -3.1°
Reaches altitude 10° 22:58:21 10° 352° (N) 2,495 6.6 -3.7°
Maximum altitude 23:04:03 66° 74° (ENE) 929 3.8 -5.0°
Drops below altitude 10° 23:09:41 10° 156° (SSE) 2,469 5.7 -6.3°
Sets 23:12:08 0° 158° (SSE) 3,397 6.4 -6.9°
